This demonstration page uses our WeatherBlox Daily Observations layout. Learn more.

Left ArrowRight Arrow

39.01783, -85.05884

Hourly Observations for May 6, 2015

Temp ( °F °C ) Dew Point ( °F °C ) Humidity (%) Winds ( mph kmh ) Pressure ( in mb ) Visibility ( mi km ) Precip ( " mm )
12:52 am 00:52 Clear 62 16.7 56 13.3 80 80 S 3 6 30.18 1022 10 16 0.00 0.00
1:52 am 01:52 Clear 59 15 56 13.3 90 90 SSW 6 9 30.18 1022 10 16 0.00 0.00
2:52 am 02:52 Mostly Clear 65 18.3 53 11.7 66 66 Calm 30.17 1022 10 16 0.00 0.00
3:52 am 03:52 Clear 59 15 54 12.2 83 83 Calm 30.18 1022 10 16 0.00 0.00
4:52 am 04:52 Clear 60 15.6 54 12.2 80 80 Calm 30.17 1022 10 16 0.00 0.00
5:52 am 05:52 Mostly Clear 57 13.9 53 11.7 87 87 Calm 30.18 1022 10 16 0.00 0.00
6:52 am 06:52 Mostly Sunny 57 13.9 53 11.7 87 87 Calm 30.18 1022 8 13 0.00 0.00
7:52 am 07:52 Mostly Sunny 59 15 55 12.8 87 87 Calm 30.19 1023 10 16 0.00 0.00
8:52 am 08:52 Mostly Sunny 69 20.6 59 15 70 70 Calm 30.20 1023 10 16 0.00 0.00
9:52 am 09:52 Mostly Sunny 76 24.4 58 14.4 54 54 Calm 30.20 1023 10 16 0.00 0.00
10:52 am 10:52 Mostly Sunny 80 26.7 56 13.3 44 44 Calm 30.19 1022 10 16 0.00 0.00
11:52 am 11:52 Partly Cloudy 81 27.2 54 12.2 39 39 W 6 9 30.19 1023 10 16 0.00 0.00
12:52 pm 12:52 Partly Cloudy 82 27.8 52 11.1 35 35 NW 3 6 30.18 1022 10 16 0.00 0.00
1:52 pm 13:52 Mostly Cloudy 84 28.9 55 12.8 37 37 W 9 15 30.16 1021 10 16 0.00 0.00
2:52 pm 14:52 Mostly Cloudy 83 28.3 53 11.7 36 36 W 5 7 30.14 1021 10 16 0.00 0.00
3:52 pm 15:52 Partly Cloudy 84 28.9 53 11.7 34 34 VRB 3 6 30.12 1020 10 16 0.00 0.00
4:52 pm 16:52 Partly Cloudy 84 28.9 53 11.7 34 34 Calm 30.10 1019 10 16 0.00 0.00
5:52 pm 17:52 Partly Cloudy 84 28.9 53 11.7 34 34 Calm 30.09 1019 10 16 0.00 0.00
6:52 pm 18:52 Partly Cloudy 85 29.4 55 12.8 36 36 NNW 5 7 30.08 1019 10 16 0.00 0.00
7:52 pm 19:52 Partly Cloudy 82 27.8 53 11.7 37 37 Calm 30.07 1018 10 16 0.00 0.00
8:52 pm 20:52 Mostly Clear 76 24.4 54 12.2 47 47 Calm 30.07 1018 10 16 0.00 0.00
9:52 pm 21:52 Clear 72 22.2 54 12.2 53 53 Calm 30.09 1019 10 16 0.00 0.00
10:52 pm 22:52 Clear 67 19.4 54 12.2 63 63 Calm 30.10 1019 10 16 0.00 0.00
11:52 pm 23:52 Clear 68 20 54 12.2 61 61 Calm 30.10 1019 10 16 0.00 0.00

Powered by AerisWeather